Terminal Aerodrome Forecast
Issued by NWS Denver/Boulder, CO

Home | Current Version | Previous Version | Text Only | Print | Product List | Glossary On
Versions: 1 2 3 4 5 6 7 8 9 10 11 12 13 14 15 16 17 18 19 20 21 22 23 24 25 26 27 28 29 30 31 32 33 34 35 36 37 38 39 40 41 42 43 44 45 46 47 48 49 50
000
FTUS45 KBOU 142129 AAB
TAFDEN
TAF AMD
KDEN 142129Z 1421/1524 25011G18KT P6SM FEW090 SCT200
     FM142300 30012G19KT P6SM SCT100 BKN200
     FM150100 VRB05KT P6SM SCT100 BKN200
     FM150300 22009KT P6SM FEW100 SCT140 BKN200
     FM150600 35012KT P6SM SCT020
     FM150900 02008KT P6SM SCT008 BKN015
      TEMPO 1511/1515 3SM -RA BR BKN008
     FM151600 05005KT P6SM SCT008 BKN020
     FM151900 12008KT P6SM SCT040 SCT120=

USA.gov is the U.S. government's official web portal to all federal, state and local government web resources and services.